Location: Bambrugge
(50.9212°N, 3.9299°E)
Time: 21:54:27
(UTC+00:00)

CSL-04 DEB - Pass Details

Date: 07 October 2024
Orbit: 701 x 856 km, 98.9° (Epoch: 12 November)

Event Time Altitude Azimuth Distance (km) Brightness Sun altitude
Rises 05:02:39 0° 17° (NNE) 3,187 ? -9.0°
Reaches altitude 10° 05:04:55 10° 21° (NNE) 2,280 ? -8.7°
Maximum altitude 05:09:54 63° 103° (ESE) 862 ? -7.9°
Drops below altitude 10° 05:15:05 10° 185° (S) 2,364 ? -7.1°
Sets 05:17:28 0° 188° (S) 3,313 ? -6.7°
